• Join FlightAware (Why Join?)
  • Login
  • US Flag 
06:41AM EST


 

Airport Tracker/Info


-or-


 

Live Flight TrackerFlight Track Log ✈ ASH2893 ✈ 27-Apr-2014 ✈ KCLT - KBHM

Flight Track Log - Related Links

Times and Time Zones

All times are in EDT time to prevent confusion due to time zone crossing. See the ASH2893 flight status page for this flight to view local times or setup timezone preferences in your user account.

Time Position Orientation Groundspeed Altitude Reporting Facility
EDT Latitude Longitude Course Direction KTS MPH feet Rate Location/Type
06:27PM 35.1869 -80.9511 201° Southwest 162 186 1,600  Level Atlanta Center
06:29PM 35.1025 -80.9897 201° Southwest 275 316 3,900 1,855 Climbing Atlanta Center
06:30PM 35.1211 -81.0703 286° West 268 308 6,300 1,750 Climbing Atlanta Center
06:31PM 35.1419 -81.1508 288° West 258 297 7,400 1,574 Climbing Atlanta Center
06:32PM 35.1144 -81.2306 247° West 258 297 9,500 2,000 Climbing Atlanta Center
06:33PM 35.0769 -81.3231 244° Southwest 272 313 11,400 1,750 Climbing Atlanta Center
06:34PM 35.0439 -81.4333 250° West 313 360 13,000 1,900 Climbing Atlanta Center
06:35PM 35.0086 -81.5511 250° West 353 406 15,200 2,050 Climbing Atlanta Center
06:36PM 34.9736 -81.6714 250° West 377 434 17,100 1,750 Climbing Atlanta Center
06:37PM 34.9361 -81.7914 249° West 383 441 18,700 1,600 Climbing Atlanta Center
06:38PM 34.8797 -81.9069 239° Southwest 389 448 20,300 1,650 Climbing Atlanta Center
06:39PM 34.8067 -82.0275 234° Southwest 395 455 22,000 1,350 Climbing Atlanta Center
06:40PM 34.7417 -82.1403 235° Southwest 407 468 23,000 850 Climbing Atlanta Center
06:41PM 34.6767 -82.2556 236° Southwest 413 475 23,700 850 Climbing Atlanta Center
06:42PM 34.6094 -82.3756 236° Southwest 424 488 24,700 1,100 Climbing Atlanta Center
06:43PM 34.5400 -82.4956 235° Southwest 430 495 25,900 1,200 Climbing Atlanta Center
06:44PM 34.4744 -82.6000 233° Southwest 435 501 27,100 1,100 Climbing Atlanta Center
06:45PM 34.4050 -82.7169 234° Southwest 435 501 28,100 950 Climbing Atlanta Center
06:46PM 34.3372 -82.8389 236° Southwest 442 509 29,000 750 Climbing Atlanta Center
06:47PM 34.2653 -82.9581 234° Southwest 442 509 29,600 850 Climbing Atlanta Center
06:48PM 34.1914 -83.0919 236° Southwest 442 509 30,700 1,100 Climbing Atlanta Center
06:49PM 34.1211 -83.2083 234° Southwest 442 509 31,800 1,150 Climbing Atlanta Center
06:50PM 34.0511 -83.3267 234° Southwest 447 514 33,000 1,100 Climbing Atlanta Center
06:51PM 33.9847 -83.4450 236° Southwest 436 502 34,000 500 Climbing Atlanta Center
06:52PM 33.9144 -83.5633 234° Southwest 436 502 34,000  Level Atlanta Center
06:53PM 33.8458 -83.6886 237° Southwest 443 510 34,000  Level Atlanta Center
06:54PM 33.8044 -83.8239 250° West 437 503 34,000  Level Atlanta Center
06:55PM 33.7650 -83.9614 251° West 437 503 34,000  Level Atlanta Center
06:56PM 33.7275 -84.0861 250° West 442 509 34,000  Level Atlanta Center
06:57PM 33.6856 -84.2286 251° West 442 509 34,000 -300 Level Atlanta Center
06:58PM 33.6497 -84.3658 253° West 442 509 33,400 -800 Descending Atlanta Center
06:59PM 33.6264 -84.5053 259° West 442 509 32,400 -1,100 Descending Atlanta Center
07:00PM 33.6342 -84.6650 273° West 431 496 31,200 -1,100 Descending Atlanta Center
07:01PM 33.6394 -84.8047 273° West 426 490 30,200 -1,250 Descending Atlanta Center
07:02PM 33.6406 -84.9469 271° West 426 490 28,700 -1,550 Descending Atlanta Center
07:03PM 33.6269 -85.0817 263° West 416 479 27,100 -1,850 Descending Atlanta Center
07:04PM 33.5967 -85.2183 255° West 421 484 25,000 -2,050 Descending Atlanta Center
07:05PM 33.5558 -85.3400 248° West 416 479 23,000 -1,850 Descending Atlanta Center
07:06PM 33.5233 -85.4442 250° West 397 457 21,300 -1,850 Descending Atlanta Center
07:07PM 33.5011 -85.5608 257° West 373 429 19,300 -2,050 Descending Atlanta Center
07:08PM 33.5097 -85.6856 275° West 363 418 17,200 -2,150 Descending Atlanta Center
07:09PM 33.5164 -85.8128 274° West 373 429 15,000 -2,100 Descending Atlanta Center
07:10PM 33.5231 -85.9350 274° West 367 422 13,000 -2,083 Descending Atlanta Center
07:10PM 33.5206 -85.9575 262° West 361 415 12,500 -2,108 Descending Atlanta Center
07:10PM 33.5258 -86.0125 277° West 356 410 11,700 -1,750 Descending Atlanta Center
07:11PM 33.5272 -86.0522 272° West 362 417 11,100 -538 Descending Atlanta Center
07:12PM 33.5319 -86.1519 273° West 308 354 11,000 -55 Descending Atlanta Center
07:12PM 33.5367 -86.2444 274° West 291 335 11,000  Level Atlanta Center
07:13PM 33.5406 -86.2544 295° West 320 368 11,000 -514 Level Atlanta Center
07:14PM 33.5450 -86.3517 273° West 302 348 10,400 -1,100 Descending Atlanta Center
07:15PM 33.5497 -86.4367 274° West 279 321 8,800 -1,500 Descending Atlanta Center
07:15PM 33.5503 -86.5139 271° West 250 288 7,600 -1,393 Descending Atlanta Center
07:16PM 33.5547 -86.5989 274° West 255 293 6,200 -1,140 Descending Atlanta Center
07:17PM 33.5306 -86.6631 246° West 200 230 5,300 -590 Descending Atlanta Center
07:18PM 33.5064 -86.7144 241° Southwest 165 190 5,000 -142 Descending Atlanta Center
07:20PM 33.4803 -86.7611 236° Southwest 184 212 5,000 -470 Level Atlanta Center
07:20PM 33.4542 -86.8100 237° Southwest 177 204 4,100 -936 Descending Atlanta Center
07:21PM 33.4633 -86.8650 281° West 216 249 3,300 -939 Descending Atlanta Center
07:22PM 33.5072 -86.8589 North 200 230 2,300 -934 Descending Atlanta Center
07:23PM 33.5292 -86.8125 60° Northeast 135 155 1,400 -806 Descending Atlanta Center
07:25PM 33.5500 -86.7500 40° Northeast  Level FlightAware Approximate
07:32PM 33.5639 -86.7523 40° Northeast  Level Estimated
07:33PM 33.5639 -86.7523 172° South  Level Estimated